Location: Piotrkow Trybunalski
(51.4000°N, 19.6830°E)
Time: 01:20:50
(UTC+02:00)

STRAND 1 - Pass Details

Date: 06 April 2023
Orbit: 767 x 779 km, 98.4° (Epoch: 06 June)

Event Time Altitude Azimuth Distance (km) Brightness Sun altitude
Rises 20:58:09 0° 7° (N) 3,253 ? -14.7°
Reaches altitude 10° 21:00:46 10° 356° (N) 2,321 ? -15.0°
Maximum altitude 21:04:58 27° 300° (WNW) 1,463 ? -15.6°
Drops below altitude 10° 21:09:10 10° 245° (WSW) 2,309 ? -16.1°
Sets 21:11:45 0° 233° (SW) 3,232 ? -16.5°
